Time,TemperatureF,DewpointF,PressureIn,WindDirection,WindDirectionDegrees,WindSpeedMPH,WindSpeedGustMPH,Humidity,HourlyPrecipIn,Conditions,Clouds,dailyrainin,SoftwareType,DateUTC
2013-07-14 00:00:00,74.6,62.1,29.85,ESE,109,4.0,6.0,65,0.00,,,0.04,Wunderground v.1.15,2013-07-14 05:00:00,
2013-07-14 00:10:00,74.6,62.5,29.85,ESE,102,4.0,4.0,66,0.00,,,0.00,Wunderground v.1.15,2013-07-14 05:10:00,
2013-07-14 00:20:00,74.4,62.3,29.86,East,92,4.0,4.0,66,0.00,,,0.00,Wunderground v.1.15,2013-07-14 05:20:00,
2013-07-14 00:25:00,74.4,62.3,29.86,ESE,102,4.0,6.0,66,0.00,,,0.00,Wunderground v.1.15,2013-07-14 05:25:00,
2013-07-14 00:35:00,74.2,62.1,29.86,SSE,152,5.0,7.0,66,0.00,,,0.00,Wunderground v.1.15,2013-07-14 05:35:00,
2013-07-14 00:45:00,74.0,61.9,29.86,East,95,5.0,6.0,66,0.00,,,0.00,Wunderground v.1.15,2013-07-14 05:45:00,
2013-07-14 00:50:00,74.0,61.9,29.86,ESE,120,5.0,5.0,66,0.00,,,0.00,Wunderground v.1.15,2013-07-14 05:50:00,
2013-07-14 01:00:00,73.9,62.2,29.86,East,97,6.0,10.0,67,0.00,,,0.00,Wunderground v.1.15,2013-07-14 06:00:00,
2013-07-14 01:10:00,73.5,61.9,29.86,SSE,147,6.0,8.0,67,0.00,,,0.00,Wunderground v.1.15,2013-07-14 06:10:00,
2013-07-14 01:20:00,73.2,61.6,29.85,ESE,121,6.0,6.0,67,0.00,,,0.00,Wunderground v.1.15,2013-07-14 06:20:00,
2013-07-14 01:25:00,73.0,61.8,29.85,East,100,6.0,6.0,68,0.00,,,0.00,Wunderground v.1.15,2013-07-14 06:25:00,
2013-07-14 01:35:00,72.5,61.3,29.86,ESE,110,5.0,7.0,68,0.00,,,0.00,Wunderground v.1.15,2013-07-14 06:35:00,
2013-07-14 01:45:00,72.3,61.6,29.85,ESE,102,5.0,6.0,69,0.00,,,0.00,Wunderground v.1.15,2013-07-14 06:45:00,
2013-07-14 01:55:00,72.3,61.6,29.85,ESE,113,6.0,9.0,69,0.00,,,0.00,Wunderground v.1.15,2013-07-14 06:55:00,
2013-07-14 02:05:00,71.5,61.2,29.84,ESE,117,6.0,6.0,70,0.00,,,0.00,Wunderground v.1.15,2013-07-14 07:05:00,
2013-07-14 02:14:00,69.9,60.8,29.84,SE,134,5.0,11.0,73,0.14,,,0.09,Wunderground v.1.15,2013-07-14 07:14:00,
2013-07-14 02:20:00,69.4,60.8,29.85,ESE,116,4.0,4.0,74,0.07,,,0.10,Wunderground v.1.15,2013-07-14 07:20:00,
2013-07-14 02:30:00,69.3,61.0,29.85,ESE,112,3.0,3.0,75,0.06,,,0.10,Wunderground v.1.15,2013-07-14 07:30:00,
2013-07-14 02:40:00,69.1,60.8,29.85,ESE,106,0.0,0.0,75,0.00,,,0.10,Wunderground v.1.15,2013-07-14 07:40:00,
2013-07-14 02:45:00,69.1,61.2,29.84,ESE,106,0.0,0.0,76,0.00,,,0.10,Wunderground v.1.15,2013-07-14 07:45:00,
2013-07-14 02:55:00,68.9,61.4,29.84,ESE,106,0.0,0.0,77,0.00,,,0.10,Wunderground v.1.15,2013-07-14 07:55:00,
2013-07-14 03:05:00,68.8,61.3,29.85,ESE,104,0.0,2.0,77,0.00,,,0.10,Wunderground v.1.15,2013-07-14 08:05:00,
2013-07-14 03:15:00,68.6,61.5,29.85,East,100,0.0,0.0,78,0.00,,,0.10,Wunderground v.1.15,2013-07-14 08:15:00,
2013-07-14 03:20:00,68.4,61.3,29.85,East,100,0.0,0.0,78,0.00,,,0.10,Wunderground v.1.15,2013-07-14 08:20:00,
2013-07-14 03:30:00,68.3,61.5,29.86,East,99,0.0,0.0,79,0.00,,,0.10,Wunderground v.1.15,2013-07-14 08:30:00,
2013-07-14 03:40:00,68.1,61.3,29.86,East,99,0.0,1.0,79,0.00,,,0.10,Wunderground v.1.15,2013-07-14 08:40:00,
2013-07-14 03:50:00,68.1,61.3,29.86,East,99,0.0,1.0,79,0.00,,,0.10,Wunderground v.1.15,2013-07-14 08:50:00,
2013-07-14 04:00:00,68.1,61.7,29.87,East,99,0.0,0.0,80,0.00,,,0.10,Wunderground v.1.15,2013-07-14 09:00:00,
2013-07-14 04:05:00,68.1,61.7,29.87,East,99,0.0,0.0,80,0.00,,,0.10,Wunderground v.1.15,2013-07-14 09:05:00,
2013-07-14 04:15:00,68.3,61.9,29.87,East,99,0.0,0.0,80,0.00,,,0.10,Wunderground v.1.15,2013-07-14 09:15:00,
2013-07-14 04:25:00,68.1,61.7,29.87,East,99,0.0,0.0,80,0.00,,,0.10,Wunderground v.1.15,2013-07-14 09:25:00,
2013-07-14 04:35:00,68.3,61.9,29.88,East,99,0.0,1.0,80,0.00,,,0.10,Wunderground v.1.15,2013-07-14 09:35:00,
2013-07-14 04:45:00,68.4,62.0,29.88,East,99,0.0,0.0,80,0.00,,,0.10,Wunderground v.1.15,2013-07-14 09:45:00,
2013-07-14 04:54:00,68.4,62.0,29.88,East,99,0.0,0.0,80,0.00,,,0.10,Wunderground v.1.15,2013-07-14 09:54:00,
2013-07-14 05:00:00,68.4,62.0,29.89,East,99,0.0,0.0,80,0.00,,,0.10,Wunderground v.1.15,2013-07-14 10:00:00,
2013-07-14 05:10:00,68.4,62.0,29.89,East,99,0.0,0.0,80,0.00,,,0.10,Wunderground v.1.15,2013-07-14 10:10:00,
2013-07-14 05:20:00,68.4,62.0,29.89,East,99,0.0,0.0,80,0.00,,,0.10,Wunderground v.1.15,2013-07-14 10:20:00,
2013-07-14 05:30:00,68.4,62.0,29.89,East,99,0.0,0.0,80,0.00,,,0.10,Wunderground v.1.15,2013-07-14 10:30:00,
2013-07-14 05:35:00,68.4,62.3,29.89,East,99,0.0,0.0,81,0.00,,,0.10,Wunderground v.1.15,2013-07-14 10:35:00,
2013-07-14 05:45:00,68.3,62.2,29.88,East,99,0.0,0.0,81,0.00,,,0.10,Wunderground v.1.15,2013-07-14 10:45:00,
2013-07-14 05:50:00,68.3,62.2,29.88,East,99,0.0,0.0,81,0.00,,,0.10,Wunderground v.1.15,2013-07-14 10:50:00,
2013-07-14 06:00:00,68.1,62.0,29.88,East,99,0.0,0.0,81,0.00,,,0.10,Wunderground v.1.15,2013-07-14 11:00:00,
2013-07-14 06:10:00,67.8,61.8,29.88,East,88,0.0,0.0,81,0.00,,,0.10,Wunderground v.1.15,2013-07-14 11:10:00,
2013-07-14 06:15:00,67.8,61.8,29.88,East,89,1.0,4.0,81,0.00,,,0.10,Wunderground v.1.15,2013-07-14 11:15:00,
2013-07-14 06:25:00,67.6,61.6,29.88,East,86,1.0,1.0,81,0.00,,,0.10,Wunderground v.1.15,2013-07-14 11:25:00,
2013-07-14 06:34:00,67.4,61.4,29.88,East,90,1.0,1.0,81,0.00,,,0.10,Wunderground v.1.15,2013-07-14 11:34:00,
2013-07-14 06:40:00,67.4,61.4,29.88,East,89,1.0,2.0,81,0.00,,,0.10,Wunderground v.1.15,2013-07-14 11:40:00,
2013-07-14 06:50:00,67.9,61.9,29.89,ENE,78,1.0,1.0,81,0.00,,,0.10,Wunderground v.1.15,2013-07-14 11:50:00,
2013-07-14 06:55:00,68.3,62.2,29.89,East,79,1.0,1.0,81,0.00,,,0.10,Wunderground v.1.15,2013-07-14 11:55:00,
2013-07-14 07:05:00,68.9,62.5,29.89,East,89,1.0,1.0,80,0.00,,,0.10,Wunderground v.1.15,2013-07-14 12:05:00,
2013-07-14 07:15:00,69.8,63.3,29.89,East,83,1.0,1.0,80,0.00,,,0.10,Wunderground v.1.15,2013-07-14 12:15:00,
2013-07-14 07:20:00,69.9,63.1,29.89,East,86,2.0,2.0,79,0.00,,,0.10,Wunderground v.1.15,2013-07-14 12:20:00,
2013-07-14 07:30:00,70.3,63.5,29.88,East,86,2.0,6.0,79,0.00,,,0.10,Wunderground v.1.15,2013-07-14 12:30:00,
2013-07-14 07:35:00,70.3,63.1,29.88,East,95,3.0,6.0,78,0.00,,,0.10,Wunderground v.1.15,2013-07-14 12:35:00,
2013-07-14 07:45:00,70.4,63.2,29.88,East,99,3.0,6.0,78,0.00,,,0.10,Wunderground v.1.15,2013-07-14 12:45:00,
2013-07-14 07:55:00,70.8,63.2,29.88,ESE,107,2.0,4.0,77,0.00,,,0.10,Wunderground v.1.15,2013-07-14 12:55:00,
2013-07-14 08:00:00,70.8,63.2,29.88,ESE,112,4.0,4.0,77,0.00,,,0.10,Wunderground v.1.15,2013-07-14 13:00:00,
2013-07-14 08:10:00,71.1,63.1,29.88,East,93,4.0,4.0,76,0.00,,,0.10,Wunderground v.1.15,2013-07-14 13:10:00,
2013-07-14 08:15:00,71.3,63.0,29.88,ESE,117,4.0,6.0,75,0.00,,,0.10,Wunderground v.1.15,2013-07-14 13:15:00,
2013-07-14 08:25:00,71.8,63.4,29.88,East,99,4.0,7.0,75,0.00,,,0.10,Wunderground v.1.15,2013-07-14 13:25:00,
2013-07-14 08:35:00,72.0,62.9,29.88,East,96,6.0,11.0,73,0.00,,,0.11,Wunderground v.1.15,2013-07-14 13:35:00,
2013-07-14 08:40:00,72.3,63.5,29.88,South,171,6.0,11.0,74,0.00,,,0.11,Wunderground v.1.15,2013-07-14 13:40:00,
2013-07-14 08:50:00,72.7,63.5,29.88,ESE,114,6.0,6.0,73,0.00,,,0.11,Wunderground v.1.15,2013-07-14 13:50:00,
2013-07-14 09:00:00,73.2,63.6,29.89,ESE,103,5.0,7.0,72,0.00,,,0.11,Wunderground v.1.15,2013-07-14 14:00:00,
2013-07-14 09:05:00,73.5,63.9,29.89,SE,127,5.0,9.0,72,0.00,,,0.11,Wunderground v.1.15,2013-07-14 14:05:00,
2013-07-14 09:15:00,73.7,63.7,29.89,ESE,104,7.0,7.0,71,0.00,,,0.11,Wunderground v.1.15,2013-07-14 14:15:00,
2013-07-14 09:20:00,74.0,63.6,29.89,East,83,6.0,7.0,70,0.00,,,0.11,Wunderground v.1.15,2013-07-14 14:20:00,
2013-07-14 09:30:00,74.4,63.6,29.89,ESE,114,6.0,6.0,69,0.00,,,0.11,Wunderground v.1.15,2013-07-14 14:30:00,
2013-07-14 09:40:00,75.1,64.2,29.89,SE,136,5.0,7.0,69,0.00,,,0.11,Wunderground v.1.15,2013-07-14 14:40:00,
2013-07-14 09:50:00,75.8,64.1,29.89,SSE,151,5.0,5.0,67,0.00,,,0.11,Wunderground v.1.15,2013-07-14 14:50:00,
2013-07-14 09:55:00,76.1,64.3,29.89,SE,138,5.0,5.0,67,0.00,,,0.11,Wunderground v.1.15,2013-07-14 14:55:00,
2013-07-14 10:05:00,76.5,63.9,29.89,ESE,104,6.0,6.0,65,0.00,,,0.11,Wunderground v.1.15,2013-07-14 15:05:00,
2013-07-14 10:10:00,76.8,64.1,29.89,SE,126,6.0,6.0,65,0.00,,,0.11,Wunderground v.1.15,2013-07-14 15:10:00,
2013-07-14 10:20:00,77.6,64.5,29.89,East,85,5.0,7.0,64,0.00,,,0.11,Wunderground v.1.15,2013-07-14 15:20:00,
2013-07-14 10:30:00,78.3,64.2,29.89,ESE,106,6.0,8.0,62,0.00,,,0.11,Wunderground v.1.15,2013-07-14 15:30:00,
2013-07-14 10:40:00,78.6,64.0,29.89,ESE,120,7.0,7.0,61,0.00,,,0.11,Wunderground v.1.15,2013-07-14 15:40:00,
2013-07-14 10:45:00,78.8,63.7,29.90,ESE,110,7.0,7.0,60,0.00,,,0.11,Wunderground v.1.15,2013-07-14 15:45:00,
2013-07-14 10:55:00,79.8,64.2,29.90,ESE,116,5.0,6.0,59,0.00,,,0.11,Wunderground v.1.15,2013-07-14 15:55:00,
2013-07-14 11:05:00,79.9,63.3,29.90,SE,144,7.0,11.0,57,0.00,,,0.11,Wunderground v.1.15,2013-07-14 16:05:00,
2013-07-14 11:14:00,80.3,63.7,29.90,ESE,106,6.0,7.0,57,0.00,,,0.11,Wunderground v.1.15,2013-07-14 16:14:00,
2013-07-14 11:20:00,80.3,62.7,29.90,SE,143,7.0,8.0,55,0.00,,,0.11,Wunderground v.1.15,2013-07-14 16:20:00,
2013-07-14 11:30:00,80.7,63.5,29.90,SE,133,6.0,11.0,56,0.00,,,0.11,Wunderground v.1.15,2013-07-14 16:30:00,
2013-07-14 11:40:00,81.4,63.2,29.90,East,80,6.0,9.0,54,0.00,,,0.11,Wunderground v.1.15,2013-07-14 16:40:00,
2013-07-14 11:45:00,81.4,63.2,29.90,SSE,154,6.0,9.0,54,0.00,,,0.11,Wunderground v.1.15,2013-07-14 16:45:00,
2013-07-14 11:55:00,81.4,62.1,29.90,East,83,8.0,10.0,52,0.00,,,0.11,Wunderground v.1.15,2013-07-14 16:55:00,
2013-07-14 12:05:00,82.0,62.6,29.90,SSE,155,7.0,8.0,52,0.00,,,0.11,Wunderground v.1.15,2013-07-14 17:05:00,
2013-07-14 12:15:00,82.6,61.5,29.90,SE,140,7.0,8.0,49,0.00,,,0.11,Wunderground v.1.15,2013-07-14 17:15:00,
2013-07-14 12:25:00,82.8,61.7,29.90,East,95,7.0,8.0,49,0.00,,,0.11,Wunderground v.1.15,2013-07-14 17:25:00,
2013-07-14 12:34:00,83.2,61.5,29.90,ESE,104,7.0,15.0,48,0.00,,,0.11,Wunderground v.1.15,2013-07-14 17:34:00,
2013-07-14 12:40:00,83.4,60.4,29.90,SE,124,7.0,8.0,46,0.00,,,0.11,Wunderground v.1.15,2013-07-14 17:40:00,
2013-07-14 12:50:00,83.6,60.6,29.90,SE,138,7.0,7.0,46,0.00,,,0.11,Wunderground v.1.15,2013-07-14 17:50:00,
2013-07-14 13:00:00,83.2,59.0,29.90,ESE,119,8.0,11.0,44,0.00,,,0.11,Wunderground v.1.15,2013-07-14 18:00:00,
2013-07-14 13:10:00,83.6,60.0,29.90,ESE,102,7.0,9.0,45,0.00,,,0.11,Wunderground v.1.15,2013-07-14 18:10:00,
2013-07-14 13:15:00,83.8,60.2,29.90,SE,131,7.0,9.0,45,0.00,,,0.11,Wunderground v.1.15,2013-07-14 18:15:00,
2013-07-14 13:25:00,84.0,60.4,29.90,ESE,109,7.0,8.0,45,0.00,,,0.11,Wunderground v.1.15,2013-07-14 18:25:00,
2013-07-14 13:35:00,84.3,59.4,29.90,ESE,112,7.0,7.0,43,0.00,,,0.11,Wunderground v.1.15,2013-07-14 18:35:00,
2013-07-14 13:40:00,84.1,59.8,29.90,East,85,8.0,8.0,44,0.00,,,0.11,Wunderground v.1.15,2013-07-14 18:40:00,
2013-07-14 13:50:00,84.3,60.0,29.90,ESE,119,7.0,7.0,44,0.00,,,0.11,Wunderground v.1.15,2013-07-14 18:50:00,
2013-07-14 14:00:00,84.5,60.8,29.90,ESE,106,7.0,9.0,45,0.00,,,0.11,Wunderground v.1.15,2013-07-14 19:00:00,
2013-07-14 14:10:00,84.5,60.8,29.90,East,86,7.0,7.0,45,0.00,,,0.11,Wunderground v.1.15,2013-07-14 19:10:00,
2013-07-14 14:19:00,84.3,60.6,29.90,ESE,109,5.0,10.0,45,0.00,,,0.11,Wunderground v.1.15,2013-07-14 19:19:00,
2013-07-14 14:25:00,84.5,60.2,29.90,ESE,117,5.0,10.0,44,0.00,,,0.11,Wunderground v.1.15,2013-07-14 19:25:00,
2013-07-14 14:35:00,84.3,59.4,29.90,ESE,102,6.0,6.0,43,0.00,,,0.11,Wunderground v.1.15,2013-07-14 19:35:00,
2013-07-14 14:45:00,84.9,59.9,29.90,ESE,107,5.0,6.0,43,0.00,,,0.11,Wunderground v.1.15,2013-07-14 19:45:00,
2013-07-14 14:55:00,85.1,60.1,29.90,SE,127,5.0,11.0,43,0.00,,,0.11,Wunderground v.1.15,2013-07-14 19:55:00,
2013-07-14 15:00:00,85.7,60.0,29.89,East,97,4.0,4.0,42,0.00,,,0.11,Wunderground v.1.15,2013-07-14 20:00:00,
2013-07-14 15:10:00,85.1,59.4,29.89,ESE,102,5.0,6.0,42,0.00,,,0.11,Wunderground v.1.15,2013-07-14 20:10:00,
2013-07-14 15:20:00,83.8,58.3,29.90,ESE,104,5.0,5.0,42,0.00,,,0.11,Wunderground v.1.15,2013-07-14 20:20:00,
2013-07-14 15:29:00,85.9,60.1,29.90,SE,124,4.0,6.0,42,0.00,,,0.11,Wunderground v.1.15,2013-07-14 20:29:00,
2013-07-14 15:35:00,85.9,60.1,29.90,East,90,4.0,6.0,42,0.00,,,0.11,Wunderground v.1.15,2013-07-14 20:35:00,
2013-07-14 15:45:00,85.7,58.6,29.90,SSE,151,4.0,7.0,40,0.00,,,0.11,Wunderground v.1.15,2013-07-14 20:45:00,
2013-07-14 15:55:00,84.3,58.7,29.90,SE,144,5.0,9.0,42,0.00,,,0.11,Wunderground v.1.15,2013-07-14 20:55:00,
2013-07-14 16:00:00,84.7,59.1,29.90,ESE,110,4.0,7.0,42,0.00,,,0.11,Wunderground v.1.15,2013-07-14 21:00:00,
2013-07-14 16:10:00,85.9,58.8,29.90,SSE,148,5.0,7.0,40,0.00,,,0.11,Wunderground v.1.15,2013-07-14 21:10:00,
2013-07-14 16:15:00,86.1,58.2,29.89,SE,141,5.0,7.0,39,0.00,,,0.11,Wunderground v.1.15,2013-07-14 21:15:00,
2013-07-14 16:25:00,86.1,59.0,29.89,ESE,104,5.0,9.0,40,0.00,,,0.11,Wunderground v.1.15,2013-07-14 21:25:00,
2013-07-14 16:35:00,86.1,58.2,29.89,SE,124,5.0,6.0,39,0.00,,,0.11,Wunderground v.1.15,2013-07-14 21:35:00,
2013-07-14 16:40:00,86.3,59.1,29.89,ESE,106,3.0,4.0,40,0.00,,,0.11,Wunderground v.1.15,2013-07-14 21:40:00,
2013-07-14 16:50:00,86.7,58.1,29.89,ESE,112,5.0,8.0,38,0.00,,,0.11,Wunderground v.1.15,2013-07-14 21:50:00,
2013-07-14 16:55:00,86.3,57.7,29.89,SE,131,6.0,8.0,38,0.00,,,0.11,Wunderground v.1.15,2013-07-14 21:55:00,
2013-07-14 17:05:00,86.7,58.1,29.89,SSE,150,5.0,7.0,38,0.00,,,0.11,Wunderground v.1.15,2013-07-14 22:05:00,
2013-07-14 17:15:00,86.7,58.1,29.89,ESE,120,4.0,5.0,38,0.00,,,0.11,Wunderground v.1.15,2013-07-14 22:15:00,
2013-07-14 17:20:00,87.0,59.0,29.89,SE,145,3.0,4.0,39,0.00,,,0.11,Wunderground v.1.15,2013-07-14 22:20:00,
2013-07-14 17:30:00,86.3,57.7,29.89,SE,134,6.0,6.0,38,0.00,,,0.11,Wunderground v.1.15,2013-07-14 22:30:00,
2013-07-14 17:40:00,86.7,59.5,29.89,East,90,4.0,4.0,40,0.00,,,0.11,Wunderground v.1.15,2013-07-14 22:40:00,
2013-07-14 17:45:00,86.7,58.8,29.89,SE,127,4.0,4.0,39,0.00,,,0.11,Wunderground v.1.15,2013-07-14 22:45:00,
2013-07-14 17:55:00,86.3,59.1,29.89,East,96,5.0,6.0,40,0.00,,,0.11,Wunderground v.1.15,2013-07-14 22:55:00,
2013-07-14 18:05:00,86.1,59.0,29.89,SSE,151,5.0,6.0,40,0.00,,,0.11,Wunderground v.1.15,2013-07-14 23:05:00,
2013-07-14 18:10:00,85.5,59.8,29.89,East,100,4.0,4.0,42,0.00,,,0.11,Wunderground v.1.15,2013-07-14 23:10:00,
2013-07-14 18:20:00,84.0,63.4,29.89,SE,134,5.0,5.0,50,0.00,,,0.11,Wunderground v.1.15,2013-07-14 23:20:00,
2013-07-14 18:30:00,82.8,68.0,29.89,SE,126,4.0,4.0,61,0.00,,,0.11,Wunderground v.1.15,2013-07-14 23:30:00,
2013-07-14 18:35:00,82.6,67.8,29.89,SE,140,5.0,6.0,61,0.00,,,0.11,Wunderground v.1.15,2013-07-14 23:35:00,
2013-07-14 18:45:00,83.0,69.1,29.89,East,100,3.0,4.0,63,0.00,,,0.11,Wunderground v.1.15,2013-07-14 23:45:00,
2013-07-14 18:50:00,83.0,68.6,29.89,SE,124,3.0,3.0,62,0.00,,,0.11,Wunderground v.1.15,2013-07-14 23:50:00,
2013-07-14 19:00:00,83.0,69.6,29.89,East,99,3.0,3.0,64,0.00,,,0.11,Wunderground v.1.15,2013-07-15 00:00:00,
2013-07-14 19:10:00,81.8,68.4,29.89,ESE,103,4.0,4.0,64,0.00,,,0.11,Wunderground v.1.15,2013-07-15 00:10:00,
2013-07-14 19:15:00,81.4,68.5,29.89,ESE,103,3.0,4.0,65,0.00,,,0.11,Wunderground v.1.15,2013-07-15 00:15:00,
2013-07-14 19:25:00,80.9,68.9,29.89,East,96,3.0,6.0,67,0.00,,,0.11,Wunderground v.1.15,2013-07-15 00:25:00,
2013-07-14 19:30:00,80.5,69.0,29.89,ESE,117,3.0,3.0,68,0.00,,,0.11,Wunderground v.1.15,2013-07-15 00:30:00,
2013-07-14 19:40:00,80.3,69.6,29.89,ESE,107,3.0,3.0,70,0.00,,,0.11,Wunderground v.1.15,2013-07-15 00:40:00,
2013-07-14 19:50:00,80.3,70.0,29.90,ESE,121,2.0,2.0,71,0.00,,,0.11,Wunderground v.1.15,2013-07-15 00:50:00,
2013-07-14 19:55:00,80.3,71.3,29.90,East,99,2.0,4.0,74,0.00,,,0.11,Wunderground v.1.15,2013-07-15 00:55:00,
2013-07-14 20:05:00,79.9,71.3,29.90,East,99,1.0,1.0,75,0.00,,,0.11,Wunderground v.1.15,2013-07-15 01:05:00,
2013-07-14 20:15:00,79.2,70.6,29.91,East,85,2.0,2.0,75,0.00,,,0.11,Wunderground v.1.15,2013-07-15 01:15:00,
2013-07-14 20:25:00,78.6,70.4,29.91,ESE,120,1.0,2.0,76,0.00,,,0.11,Wunderground v.1.15,2013-07-15 01:25:00,
2013-07-14 20:35:00,77.7,69.9,29.91,ESE,107,3.0,4.0,77,0.00,,,0.11,Wunderground v.1.15,2013-07-15 01:35:00,
2013-07-14 20:45:00,77.6,69.4,29.92,East,95,3.0,4.0,76,0.00,,,0.11,Wunderground v.1.15,2013-07-15 01:45:00,
2013-07-14 20:55:00,77.4,69.2,29.92,East,85,1.0,2.0,76,0.00,,,0.11,Wunderground v.1.15,2013-07-15 01:55:00,
2013-07-14 21:00:00,77.2,69.0,29.92,East,83,1.0,1.0,76,0.00,,,0.11,Wunderground v.1.15,2013-07-15 02:00:00,
2013-07-14 21:10:00,76.8,68.3,29.92,East,83,0.0,0.0,75,0.00,,,0.11,Wunderground v.1.15,2013-07-15 02:10:00,
2013-07-14 21:20:00,76.3,67.4,29.93,East,83,0.0,0.0,74,0.00,,,0.11,Wunderground v.1.15,2013-07-15 02:20:00,
2013-07-14 21:25:00,76.1,66.8,29.93,East,83,0.0,1.0,73,0.00,,,0.11,Wunderground v.1.15,2013-07-15 02:25:00,
2013-07-14 21:35:00,75.8,66.1,29.93,East,85,1.0,2.0,72,0.00,,,0.11,Wunderground v.1.15,2013-07-15 02:35:00,
2013-07-14 21:45:00,75.6,65.1,29.93,East,100,2.0,2.0,70,0.00,,,0.11,Wunderground v.1.15,2013-07-15 02:45:00,
2013-07-14 21:55:00,75.4,64.5,29.93,East,97,1.0,2.0,69,0.00,,,0.11,Wunderground v.1.15,2013-07-15 02:55:00,
2013-07-14 22:05:00,75.3,64.0,29.94,East,96,0.0,2.0,68,0.00,,,0.11,Wunderground v.1.15,2013-07-15 03:05:00,
2013-07-14 22:10:00,75.1,63.4,29.94,East,96,0.0,0.0,67,0.00,,,0.11,Wunderground v.1.15,2013-07-15 03:10:00,
2013-07-14 22:20:00,74.7,62.6,29.95,East,99,1.0,2.0,66,0.00,,,0.11,Wunderground v.1.15,2013-07-15 03:20:00,
2013-07-14 22:30:00,74.6,62.1,29.95,East,93,1.0,1.0,65,0.00,,,0.11,Wunderground v.1.15,2013-07-15 03:30:00,
2013-07-14 22:40:00,74.2,61.7,29.95,East,93,0.0,1.0,65,0.00,,,0.11,Wunderground v.1.15,2013-07-15 03:40:00,
2013-07-14 22:45:00,74.2,61.2,29.96,East,93,0.0,1.0,64,0.00,,,0.11,Wunderground v.1.15,2013-07-15 03:45:00,
2013-07-14 22:55:00,73.9,60.5,29.96,East,93,0.0,0.0,63,0.00,,,0.11,Wunderground v.1.15,2013-07-15 03:55:00,
2013-07-14 23:05:00,73.7,60.3,29.97,East,93,0.0,0.0,63,0.00,,,0.11,Wunderground v.1.15,2013-07-15 04:05:00,
2013-07-14 23:09:00,73.5,60.1,29.97,East,93,0.0,1.0,63,0.00,,,0.11,Wunderground v.1.15,2013-07-15 04:09:00,
2013-07-14 23:15:00,73.3,59.9,29.97,East,93,0.0,1.0,63,0.00,,,0.11,Wunderground v.1.15,2013-07-15 04:15:00,
2013-07-14 23:20:00,73.3,59.9,29.97,East,93,1.0,1.0,63,0.00,,,0.11,Wunderground v.1.15,2013-07-15 04:20:00,
2013-07-14 23:30:00,73.2,59.8,29.97,East,93,1.0,1.0,63,0.00,,,0.11,Wunderground v.1.15,2013-07-15 04:30:00,
2013-07-14 23:40:00,73.2,59.8,29.97,East,93,0.0,1.0,63,0.00,,,0.11,Wunderground v.1.15,2013-07-15 04:40:00,
2013-07-14 23:50:00,73.2,59.8,29.97,East,97,1.0,1.0,63,0.00,,,0.11,Wunderground v.1.15,2013-07-15 04:50:00,
2013-07-14 23:55:00,73.2,59.8,29.97,East,97,0.0,1.0,63,0.00,,,0.11,Wunderground v.1.15,2013-07-15 04:55:00,